Weather in Redkino

Russia / Tver Oblast     56°38′59″N   36°17′40″E
temp.,
°C
wind,
m/s
gust,
m/s
humid.,
%
clouds,
%
prec.,
mm/h
press.,
hPa
HPBL,
m
24 january, mon
mon2400:00−19ssw1110099 0.0 10359
03:00−19wsw1110097 0.0 10379
06:00−19sw2210097 0.0 103614
09:00−19ssw2210098 0.0 103720
12:00−11sw249317 0.0 1036130
15:00−9ssw36935 0.0 1034178
18:00−14ssw369856 0.0 103470
21:00−14ssw39955 0.0 1032118
25 january, tue
tue2500:00−14ssw310955 0.0 1030142
03:00−14ssw411935 0.0 1028187
06:00−14ssw412905 0.0 1026217
09:00−13ssw413897 0.0 1023250
12:00−9ssw51485100 0.0 1020365
15:00−8ssw51394100 0.3 1017447
18:00−7ssw41095100 1.6 1015420
21:00−7sw3796100 3.1 1014307
26 january, wed
wed2600:00−6wsw2597100 0.9 1014197
03:00−5nnw31096100 1.5 1014447
06:00−6nnw4109399 0.2 1015429
09:00−9nnw4995100 0.3 1017299
12:00−9nnw39905 0.0 1018322
15:00−9nw36915 0.0 1019217
18:00−16nw229959 0.0 102030
21:00−20nw1110072 0.0 10199
27 january, thu
thu2700:00−20sw11100100 0.0 10199
03:00−18s2298100 0.0 101838
06:00−15s2596100 0.0 101786
09:00−14sse3794100 0.0 1015134
12:00−10s41087100 0.0 1013298
15:00−8s41189100 0.0 1011458
18:00−9s51188100 0.0 1010408
21:00−10s4119283 0.0 1008371
28 january, fri
fri2800:00−9sse4119390 0.1 1007399
03:00−9sse41194100 0.1 1005364
06:00−9sse51294100 0.1 1003383
09:00−9sse51394100 0.3 1002411
12:00−6sse51195100 0.9 1001482
15:00−5sse4995100 1.5 1000511
18:00−6se499698 0.6 1000409
21:00−7se3796100 0.8 1000219